Stations météo

réclame
Mon MeteoGroup
Kinloss, Grande-Bretagne (3066): Température de l'air & dewpoint: 15.10.2020 14:00:00 - 21.10.2020 14:00:00 (BST)Kinloss, Grande-Bretagne (3066): Température de l'air -20cm & Température de l'air -100cm: 15.10.2020 14:00:00 - 21.10.2020 14:00:00 (BST)Kinloss, Grande-Bretagne (3066): Vitesse du vent: 15.10.2020 14:00:00 - 21.10.2020 14:00:00 (BST)Kinloss, Grande-Bretagne (3066): Direction du vent: 15.10.2020 14:00:00 - 21.10.2020 14:00:00 (BST)Kinloss, Grande-Bretagne (3066): reduced air pressure: 15.10.2020 14:00:00 - 21.10.2020 14:00:00 (BST)Kinloss, Grande-Bretagne (3066): visibility: 15.10.2020 14:00:00 - 21.10.2020 14:00:00 (BST)Kinloss, Grande-Bretagne (3066): Ensoleillement: 15.10.2020 14:00:00 - 21.10.2020 14:00:00 (BST)Kinloss, Grande-Bretagne (3066): Quantités de précipitations: 15.10.2020 14:00:00 - 21.10.2020 14:00:00 (BST)
Date & Time tt [°C] td [°C] tt -20cm [°C] tt -100cm [°C] ff [km/h] ff [knt] dd ppp [hPa] vv [km] sd [min] rr [mm]
21.10.2020 14:00:00 12,8 10,6 - - 9 5 NW 991,8 30 36 0,0
21.10.2020 13:00:00 12,8 11,3 - - 5 3 WNW 991,8 24 0 0,0
21.10.2020 12:00:00 12,7 11,1 - - 2 1 ENE 991,8 30 0 0,0
21.10.2020 11:00:00 11,7 11,4 - - 5 3 E 991,8 25 0 0,0
21.10.2020 10:00:00 10,5 10,4 11,2 11,0 8 4 E 992,0 17 0 0,2
21.10.2020 09:00:00 9,7 9,6 - - 2 1 E 991,8 12 0 0,0
21.10.2020 08:00:00 10,0 9,8 - - 8 4 ENE 991,2 18 0 0,0
21.10.2020 07:00:00 10,2 10,0 - - 11 6 E 990,8 18 0 0,0
21.10.2020 06:00:00 10,5 10,3 - - 13 7 E 990,9 15 0 1,6
21.10.2020 05:00:00 10,5 10,3 - - 9 5 E 991,1 4,3 0 0,2
21.10.2020 04:00:00 10,3 10,2 - - 11 6 ENE 991,4 13 0 0,0
21.10.2020 03:00:00 10,3 10,2 - - 13 7 E 991,9 15 0 0,2
21.10.2020 02:00:00 10,1 10,0 - - 9 5 E 992,5 2,7 0 0,6
21.10.2020 01:00:00 10,0 9,8 - - 4 2 E 992,9 5 - 0,6
21.10.2020 00:00:00 10,3 10,2 - - 9 5 E 993,0 4,6 0 0,0
20.10.2020 23:00:00 10,0 9,8 - - 8 4 ENE 993,3 6 0 0,0
20.10.2020 22:00:00 9,9 9,7 - - 8 4 ENE 993,5 9 0 0,4
20.10.2020 21:00:00 9,9 9,7 - - 8 4 NE 993,7 5 0 0,8
20.10.2020 20:00:00 10,0 9,7 - - 8 4 NE 993,6 5 0 1,0
20.10.2020 19:00:00 10,4 9,8 - - 5 3 E 993,5 11 0 0,0
20.10.2020 18:00:00 10,9 9,6 - - 8 4 NE 993,1 20 0 0,0
20.10.2020 17:00:00 11,4 9,8 - - 5 3 NE 993,0 21 30 0,0
20.10.2020 16:00:00 12,1 9,8 - - 9 5 N 993,1 26 36 0,0
20.10.2020 15:00:00 13,3 10,2 - - 4 2 W 993,4 35 6 0,0
20.10.2020 14:00:00 12,7 10,0 - - 5 3 SE 993,4 30 18 0,0
20.10.2020 13:00:00 11,6 10,4 - - 8 4 E 993,7 23 0 0,0
20.10.2020 12:00:00 10,9 10,5 - - 8 4 E 993,9 19 0 0,4
20.10.2020 11:00:00 10,4 10,0 - - 11 6 ENE 994,0 13 0 0,4
20.10.2020 10:00:00 10,4 9,6 11,0 11,0 9 5 ESE 994,3 17 0 0,8
20.10.2020 09:00:00 10,1 9,6 - - 9 5 E 994,5 11 0 1,2
20.10.2020 08:00:00 10,2 9,6 - - 15 8 E 994,4 11 0 1,2
20.10.2020 07:00:00 10,2 9,7 - - 9 5 E 994,6 13 0 1,0
20.10.2020 06:00:00 10,3 9,7 - - 9 5 ENE 994,8 19 0 0,4
20.10.2020 05:00:00 9,9 9,7 - - 8 4 E 995,7 23 0 1,0
20.10.2020 04:00:00 9,3 9,2 - - 5 3 ESE 995,9 20 0 0,6
20.10.2020 03:00:00 9,1 8,9 - - 5 3 E 996,6 28 0 0,0
20.10.2020 02:00:00 9,3 8,9 - - 5 3 E 996,9 27 0 0,2
20.10.2020 01:00:00 9,6 8,8 - - 4 2 E 997,3 45 - 0,0
20.10.2020 00:00:00 9,5 8,9 - - 4 2 E 997,9 16 0 0,6
19.10.2020 23:00:00 9,8 9,0 - - 5 3 E 998,4 17 0 0,6
19.10.2020 22:00:00 9,8 9,3 - - 5 3 E 998,9 25 0 0,8
19.10.2020 21:00:00 9,9 9,5 - - 4 2 ESE 999,5 16 0 0,4
19.10.2020 20:00:00 10,1 9,8 - - 5 3 E 1000,0 20 0 0,4
19.10.2020 19:00:00 10,5 10,2 - - 4 2 E 1000,6 10 0 1,0
19.10.2020 18:00:00 10,8 10,5 - - 9 5 E 1001,0 8 0 0,2
19.10.2020 17:00:00 10,6 10,2 - - 5 3 E 1001,8 17 0 0,2
19.10.2020 16:00:00 10,6 10,1 - - 4 2 WSW 1002,7 14 0 0,4
19.10.2020 15:00:00 11,2 10,7 - - 5 3 WNW 1003,3 8 0 0,2
19.10.2020 14:00:00 10,6 10,1 - - 8 4 E 1003,5 21 0 0,0
19.10.2020 13:00:00 9,9 9,5 - - 5 3 E 1004,6 15 0 0,0
19.10.2020 12:00:00 9,4 9,1 - - 11 6 E 1005,0 14 0 1,0
19.10.2020 11:00:00 9,0 8,6 - - 15 8 E 1005,7 5 0 0,6
19.10.2020 10:00:00 8,5 8,1 11,0 11,2 16 9 E 1006,6 7 0 1,6
19.10.2020 09:00:00 8,2 7,8 - - 13 7 E 1007,3 9 0 2,0
19.10.2020 08:00:00 8,0 7,7 - - 11 6 E 1008,0 7 0 2,2
19.10.2020 07:00:00 7,6 7,3 - - 9 5 ESE 1008,9 10 0 1,8
19.10.2020 06:00:00 7,1 6,8 - - 4 2 E 1009,5 15 0 0,2
19.10.2020 05:00:00 7,2 6,9 - - 5 3 ESE 1010,3 29 0 0,0
19.10.2020 04:00:00 6,9 6,5 - - 4 2 E 1010,9 30 0 0,0
19.10.2020 03:00:00 6,7 6,4 - - 5 3 ESE 1011,9 25 0 0,2
19.10.2020 02:00:00 7,0 6,6 - - 5 3 ESE 1012,7 11 0 0,6
19.10.2020 01:00:00 6,9 6,1 - - 4 2 E 1013,4 19 - 0,0
19.10.2020 00:00:00 6,9 6,0 - - 8 4 ENE 1013,9 30 0 0,0
18.10.2020 23:00:00 7,4 5,7 - - 0 0 N 1014,5 30 0 0,0
18.10.2020 22:00:00 7,4 5,1 - - 8 4 S 1015,2 35 0 0,0
18.10.2020 21:00:00 7,0 4,9 - - 9 5 SSE 1016,0 35 0 0,0
18.10.2020 20:00:00 6,4 4,9 - - 5 3 ESE 1016,9 16 0 0,0
18.10.2020 19:00:00 6,2 4,5 - - 5 3 E 1017,6 35 0 0,0
18.10.2020 18:00:00 7,5 3,7 - - 4 2 S 1017,8 35 0 0,0
18.10.2020 17:00:00 7,6 3,9 - - 4 2 S 1018,5 40 0 0,0
18.10.2020 16:00:00 7,7 4,1 - - 4 2 WSW 1019,4 40 0 0,0
18.10.2020 15:00:00 7,7 5,2 - - 8 4 WNW 1020,1 40 0 0,0
18.10.2020 14:00:00 7,9 3,7 - - 5 3 S 1020,9 30 0 0,0
18.10.2020 13:00:00 7,8 4,7 - - 5 3 SW 1022,1 35 0 0,0
18.10.2020 12:00:00 7,1 5,2 - - 8 4 WSW 1022,9 35 0 0,0
18.10.2020 11:00:00 6,4 5,2 - - 2 1 NNE 1023,7 26 0 0,0
18.10.2020 10:00:00 5,6 5,3 11,0 11,2 8 4 SW 1024,3 5 0 0,4
18.10.2020 09:00:00 5,6 5,3 - - 8 4 SW 1024,5 30 0 0,0
18.10.2020 08:00:00 5,4 5,2 - - 5 3 SW 1024,6 6 0 1,0
18.10.2020 07:00:00 5,8 5,3 - - 13 7 W 1024,7 8 0 0,6
18.10.2020 06:00:00 5,8 5,3 - - 11 6 SW 1025,2 3,8 0 2,4
18.10.2020 05:00:00 6,1 4,8 - - 13 7 NW 1025,6 7 0 0,0
18.10.2020 04:00:00 5,9 4,5 - - 4 2 SW 1026,0 40 0 0,0
18.10.2020 03:00:00 6,2 3,9 - - 9 5 SSW 1026,2 45 0 0,0
18.10.2020 02:00:00 6,9 2,1 - - 8 4 NNW 1026,9 45 0 0,0
18.10.2020 01:00:00 6,5 2,3 - - 13 7 N 1026,9 45 - 0,0
18.10.2020 00:00:00 7,4 3,8 - - 21 11 N 1026,9 40 0 0,0
17.10.2020 23:00:00 7,6 4,7 - - 22 12 N 1027,1 35 0 0,0
17.10.2020 22:00:00 8,1 5,6 - - 16 9 NNE 1027,2 27 0 0,2
17.10.2020 21:00:00 7,9 5,9 - - 13 7 NNE 1027,1 40 0 0,0
17.10.2020 20:00:00 7,7 7,4 - - 4 2 E 1027,4 5 0 1,0
17.10.2020 19:00:00 6,7 6,1 - - 9 5 W 1027,3 13 0 0,2
17.10.2020 18:00:00 8,1 6,0 - - 11 6 WNW 1027,1 30 0 0,0
17.10.2020 17:00:00 8,8 6,1 - - 9 5 NW 1027,1 40 6 0,0
17.10.2020 16:00:00 8,7 5,4 - - 11 6 N 1027,6 35 0 0,2
17.10.2020 15:00:00 8,7 5,7 - - 16 9 N 1028,0 35 0 0,0
17.10.2020 14:00:00 9,2 6,1 - - 16 9 N 1028,2 35 0 0,0
17.10.2020 13:00:00 9,1 6,3 - - 13 7 N 1028,2 35 0 0,0
17.10.2020 12:00:00 8,9 7,7 - - 11 6 NNW 1028,3 27 6 0,2
17.10.2020 11:00:00 8,7 7,6 - - 16 9 N 1028,3 26 0 0,0
17.10.2020 10:00:00 7,7 7,3 11,2 11,2 15 8 NW 1028,2 4,2 0 0,2
17.10.2020 09:00:00 7,4 7,1 - - 16 9 NW 1028,1 13 0 0,6
17.10.2020 08:00:00 6,9 6,6 - - 15 8 NW 1028,1 3,7 0 0,6
17.10.2020 07:00:00 7,1 6,7 - - 5 3 NNW 1028,2 2,4 0 0,2
17.10.2020 06:00:00 7,1 6,3 - - 5 3 NNE 1028,2 30 0 0,0
17.10.2020 05:00:00 7,3 6,1 - - 9 5 N 1028,2 35 0 0,0
17.10.2020 04:00:00 7,4 6,8 - - 9 5 NNE 1028,5 18 0 0,4
17.10.2020 03:00:00 7,6 7,1 - - 4 2 SSE 1028,9 19 0 0,0
17.10.2020 02:00:00 7,5 7,0 - - 4 2 NW 1029,1 23 0 0,0
17.10.2020 01:00:00 7,6 7,2 - - 4 2 ENE 1029,4 20 - 0,0
17.10.2020 00:00:00 7,9 7,6 - - 8 4 ENE 1029,5 6 0 1,0
16.10.2020 23:00:00 7,9 7,7 - - 13 7 ENE 1029,9 2,1 0 0,6
16.10.2020 22:00:00 7,6 7,1 - - 0 0 N 1029,8 16 0 0,2
16.10.2020 21:00:00 8,0 7,3 - - 2 1 E 1029,9 17 0 0,0
16.10.2020 20:00:00 8,5 7,3 - - 5 3 ENE 1030,0 13 0 0,0
16.10.2020 19:00:00 9,0 7,1 - - 8 4 ENE 1029,7 30 0 0,0
16.10.2020 18:00:00 9,4 6,8 - - 5 3 ENE 1029,6 30 0 0,0
16.10.2020 17:00:00 9,8 7,5 - - 8 4 ENE 1029,5 29 0 0,0
16.10.2020 16:00:00 10,0 7,6 - - 8 4 NNE 1029,9 29 0 0,2
16.10.2020 15:00:00 10,1 8,5 - - 9 5 N 1030,2 30 0 0,0
16.10.2020 14:00:00 11,0 7,6 - - 8 4 E 1030,3 35 0 0,0
16.10.2020 13:00:00 10,8 8,8 - - 8 4 E 1030,6 30 30 0,0
16.10.2020 12:00:00 9,5 9,3 - - 5 3 WSW 1030,9 26 18 0,2
16.10.2020 11:00:00 7,9 7,7 - - 8 4 WSW 1031,1 5 0 0,2
16.10.2020 10:00:00 7,5 7,3 11,2 11,2 11 6 SW 1030,9 18 0 0,0
16.10.2020 09:00:00 7,1 6,9 - - 8 4 SW 1030,7 23 0 0,2
16.10.2020 08:00:00 7,0 6,8 - - 9 5 SSW 1030,5 13 0 0,0
16.10.2020 07:00:00 7,1 6,9 - - 8 4 SSW 1030,5 19 0 0,0
16.10.2020 06:00:00 6,9 6,8 - - 9 5 SSW 1030,6 20 0 0,4
16.10.2020 05:00:00 7,0 6,9 - - 9 5 SSW 1030,9 4,3 0 0,2
16.10.2020 04:00:00 6,9 6,8 - - 9 5 SW 1031,1 4,1 0 0,4
16.10.2020 03:00:00 6,8 6,6 - - 11 6 SW 1031,5 5 0 0,0
16.10.2020 02:00:00 6,7 6,5 - - 8 4 SW 1031,8 18 0 0,0
16.10.2020 01:00:00 6,4 6,2 - - 8 4 SW 1031,9 23 - 0,2
16.10.2020 00:00:00 6,3 6,1 - - 5 3 SSW 1031,9 20 0 0,0
15.10.2020 23:00:00 6,5 6,0 - - 8 4 SSW 1031,9 15 0 0,2
15.10.2020 22:00:00 7,2 6,5 - - 2 1 SSW 1032,1 4,5 0 0,2
15.10.2020 21:00:00 7,3 6,3 - - 5 3 SW 1031,8 21 0 0,0
15.10.2020 20:00:00 7,2 6,3 - - 5 3 SSW 1031,9 23 0 0,0
15.10.2020 19:00:00 7,5 6,8 - - 5 3 W 1031,9 23 0 0,0
15.10.2020 18:00:00 8,1 6,8 - - 2 1 SE 1031,8 25 0 0,0
15.10.2020 17:00:00 8,6 7,2 - - 4 2 ESE 1031,9 10 0 0,2
15.10.2020 16:00:00 8,4 7,1 - - 11 6 NE 1032,0 5 0 0,2
15.10.2020 15:00:00 9,3 5,8 - - 8 4 NNW 1032,1 28 0 0,0
15.10.2020 14:00:00 9,4 5,9 - - 4 2 W 1032,2 30 0 0,0

tt = Température de l'air
td = dewpoint
tt -20cm = Température de l'air -20cm
tt -100cm = Température de l'air -100cm
ff = Vitesse du vent
dd = Direction du vent
ppp = reduced air pressure
vv = visibility
sd = Ensoleillement
rr = Quantités de précipitations

stations d'obs. à proximité